When you browse on this site, cookies collect data to enhance your experience and personalize the content and advertising you see.
Visit our Privacy Policy to learn more. By continuing to use the site, you agree to this use of cookies and data.
  • In Latvia
  • List of Countries
  • For 7 days
  • Water Temperature
  • Satellite Maps
  • Weather Map
  • Weather Widgets
  • user-avatar
    Login

    Hourly Weather Gold Coast

    Today, 22 March, Friday

    Time Temperature Precipitation Wind Pressure Humidity
    00:00 +24°C° 0.7 mm 1 mps 758 mmHg 92%
    01:00 +23°C° 0.7 mm 1 mps 758 mmHg 93%
    02:00 +23°C° 0.8 mm 1 mps 757 mmHg 94%
    03:00 +23°C° 0.8 mm 1 mps 757 mmHg 95%
    04:00 +23°C° 0 mm 1 mps 757 mmHg 95%
    05:00 +23°C° 0.4 mm 1 mps 758 mmHg 95%
    06:00 +23°C° 0.4 mm 1 mps 758 mmHg 94%
    07:00 +24°C° 0.4 mm 1 mps 758 mmHg 94%
    08:00 +26°C° 0.2 mm 1 mps 758 mmHg 85%
    09:00 +28°C° 0.2 mm 2 mps 758 mmHg 75%
    10:00 +30°C° 0 mm 1 mps 758 mmHg 67%
    11:00 +30°C° 0.6 mm 1 mps 758 mmHg 68%
    12:00 +30°C° 0.6 mm 2 mps 758 mmHg 69%
    13:00 +30°C° 0.6 mm 2 mps 757 mmHg 70%
    14:00 +30°C° 0.1 mm 2 mps 757 mmHg 69%
    15:00 +30°C° 0.1 mm 2 mps 757 mmHg 68%
    16:00 +30°C° 0.1 mm 3 mps 756 mmHg 67%
    17:00 +28°C° 0.6 mm 3 mps 757 mmHg 75%
    18:00 +27°C° 0.6 mm 2 mps 757 mmHg 82%
    19:00 +25°C° 0.6 mm 2 mps 757 mmHg 90%
    20:00 +25°C° 0.5 mm 2 mps 757 mmHg 91%
    21:00 +25°C° 0.5 mm 2 mps 758 mmHg 91%
    22:00 +24°C° 0.5 mm 2 mps 758 mmHg 92%
    23:00 +24°C° 0.8 mm 2 mps 758 mmHg 93%

    Tomorrow, 23 March, Saturday

    Time Temperature Precipitation Wind Pressure Humidity
    00:00 +24°C° 0.8 mm 2 mps 758 mmHg 94%
    01:00 +24°C° 0.8 mm 1 mps 758 mmHg 95%
    02:00 +24°C° 0.6 mm 1 mps 757 mmHg 95%
    03:00 +24°C° 0.6 mm 1 mps 757 mmHg 96%
    04:00 +24°C° 0.6 mm 1 mps 757 mmHg 96%
    05:00 +24°C° 0 mm 1 mps 757 mmHg 95%
    06:00 +24°C° 0 mm 1 mps 758 mmHg 94%
    07:00 +24°C° 0 mm 1 mps 758 mmHg 94%
    08:00 +26°C° 0.1 mm 1 mps 758 mmHg 84%
    09:00 +28°C° 0.1 mm 1 mps 758 mmHg 74%
    10:00 +30°C° 0.1 mm 2 mps 758 mmHg 64%
    11:00 +31°C° 0 mm 2 mps 757 mmHg 58%
    12:00 +34°C° 0 mm 2 mps 757 mmHg 52%
    13:00 +35°C° 0 mm 3 mps 756 mmHg 46%
    14:00 +34°C° 0 mm 3 mps 756 mmHg 49%
    15:00 +33°C° 0 mm 4 mps 756 mmHg 53%
    16:00 +33°C° 0 mm 4 mps 755 mmHg 57%
    17:00 +30°C° 0 mm 4 mps 755 mmHg 66%
    18:00 +28°C° 0 mm 3 mps 756 mmHg 76%
    19:00 +26°C° 0 mm 3 mps 756 mmHg 86%
    20:00 +25°C° 0 mm 3 mps 756 mmHg 87%
    21:00 +25°C° 0 mm 3 mps 757 mmHg 88%
    22:00 +25°C° 0 mm 3 mps 757 mmHg 89%
    23:00 +25°C° 0 mm 3 mps 757 mmHg 89%

    Day after tomorrow, 24 March, Sunday

    Time Temperature Precipitation Wind Pressure Humidity
    00:00 +25°C° 0 mm 3 mps 757 mmHg 90%
    01:00 +24°C° 0 mm 3 mps 757 mmHg 90%
    02:00 +24°C° 0 mm 3 mps 757 mmHg 90%
    03:00 +24°C° 0 mm 3 mps 757 mmHg 90%
    04:00 +24°C° 0 mm 3 mps 757 mmHg 90%
    05:00 +24°C° 0 mm 3 mps 757 mmHg 88%
    06:00 +24°C° 0 mm 2 mps 757 mmHg 86%
    07:00 +25°C° 0 mm 2 mps 758 mmHg 84%
    08:00 +27°C° 0 mm 2 mps 758 mmHg 74%
    09:00 +29°C° 0 mm 3 mps 758 mmHg 65%
    10:00 +33°C° 0 mm 3 mps 758 mmHg 55%
    11:00 +34°C° 0 mm 3 mps 757 mmHg 52%
    12:00 +35°C° 0 mm 3 mps 757 mmHg 48%
    13:00 +36°C° 0 mm 4 mps 756 mmHg 44%
    14:00 +35°C° 0 mm 4 mps 756 mmHg 47%
    15:00 +34°C° 0 mm 4 mps 755 mmHg 50%
    16:00 +34°C° 0 mm 5 mps 755 mmHg 53%
    17:00 +32°C° 0 mm 4 mps 755 mmHg 61%
    18:00 +29°C° 0 mm 4 mps 756 mmHg 69%
    19:00 +27°C° 0 mm 4 mps 756 mmHg 77%
    20:00 +26°C° 0 mm 3 mps 757 mmHg 80%
    21:00 +26°C° 0 mm 3 mps 757 mmHg 82%
    22:00 +26°C° 0 mm 3 mps 758 mmHg 85%
    23:00 +25°C° 0 mm 3 mps 758 mmHg 86%

    25 March, Monday

    Time Temperature Precipitation Wind Pressure Humidity
    00:00 +25°C° 0 mm 3 mps 758 mmHg 87%
    01:00 +25°C° 0 mm 3 mps 757 mmHg 88%
    02:00 +25°C° 0 mm 3 mps 757 mmHg 87%
    03:00 +24°C° 0 mm 3 mps 757 mmHg 87%
    04:00 +24°C° 0 mm 3 mps 757 mmHg 86%
    05:00 +25°C° 0 mm 3 mps 757 mmHg 84%
    06:00 +25°C° 0 mm 3 mps 758 mmHg 83%
    07:00 +25°C° 0 mm 3 mps 758 mmHg 81%
    08:00 +27°C° 0 mm 3 mps 758 mmHg 74%
    09:00 +29°C° 0 mm 3 mps 758 mmHg 67%
    10:00 +30°C° 0 mm 4 mps 758 mmHg 59%
    11:00 +32°C° 0 mm 4 mps 758 mmHg 56%
    12:00 +33°C° 0 mm 4 mps 757 mmHg 52%
    13:00 +34°C° 0 mm 4 mps 757 mmHg 48%
    14:00 +34°C° 0 mm 4 mps 756 mmHg 52%
    15:00 +33°C° 0 mm 4 mps 756 mmHg 56%
    16:00 +32°C° 0 mm 4 mps 756 mmHg 60%
    17:00 +29°C° 0 mm 4 mps 756 mmHg 67%
    18:00 +28°C° 0 mm 4 mps 756 mmHg 75%
    19:00 +26°C° 0 mm 4 mps 757 mmHg 83%
    20:00 +26°C° 0 mm 3 mps 757 mmHg 85%
    21:00 +26°C° 0 mm 3 mps 757 mmHg 87%
    22:00 +25°C° 0 mm 3 mps 758 mmHg 90%
    23:00 +25°C° 0 mm 3 mps 757 mmHg 90%

    26 March, Tuesday

    Time Temperature Precipitation Wind Pressure Humidity
    00:00 +25°C° 0 mm 3 mps 757 mmHg 90%
    01:00 +25°C° 0 mm 3 mps 757 mmHg 90%
    02:00 +25°C° 0 mm 4 mps 756 mmHg 90%
    03:00 +25°C° 0 mm 4 mps 756 mmHg 90%
    04:00 +25°C° 0 mm 4 mps 756 mmHg 90%
    05:00 +25°C° 0 mm 4 mps 757 mmHg 89%
    06:00 +25°C° 0 mm 4 mps 757 mmHg 88%
    07:00 +26°C° 0 mm 3 mps 758 mmHg 87%
    08:00 +27°C° 0 mm 3 mps 758 mmHg 78%
    09:00 +29°C° 0 mm 3 mps 758 mmHg 70%
    10:00 +30°C° 0 mm 3 mps 758 mmHg 61%
    11:00 +31°C° 0 mm 3 mps 757 mmHg 57%
    12:00 +33°C° 0 mm 3 mps 756 mmHg 52%
    13:00 +34°C° 0 mm 3 mps 756 mmHg 48%
    14:00 +33°C° 0 mm 3 mps 755 mmHg 54%
    15:00 +31°C° 0 mm 3 mps 755 mmHg 60%
    16:00 +30°C° 0 mm 4 mps 755 mmHg 66%
    17:00 +28°C° 0.4 mm 3 mps 756 mmHg 74%
    18:00 +27°C° 0.4 mm 2 mps 756 mmHg 82%
    19:00 +25°C° 0.4 mm 2 mps 757 mmHg 90%
    20:00 +25°C° 0.9 mm 2 mps 758 mmHg 91%
    21:00 +25°C° 0.9 mm 3 mps 758 mmHg 92%
    22:00 +24°C° 0.9 mm 3 mps 759 mmHg 94%
    23:00 +24°C° 0.6 mm 3 mps 758 mmHg 94%

    27 March, Wednesday

    Time Temperature Precipitation Wind Pressure Humidity
    00:00 +23°C° 0.6 mm 4 mps 758 mmHg 94%
    01:00 +23°C° 0.6 mm 4 mps 758 mmHg 94%
    02:00 +23°C° 1.6 mm 4 mps 758 mmHg 94%
    03:00 +23°C° 1.6 mm 4 mps 758 mmHg 94%
    04:00 +23°C° 1.6 mm 4 mps 758 mmHg 94%
    05:00 +22°C° 2.2 mm 4 mps 758 mmHg 95%
    06:00 +22°C° 2.2 mm 4 mps 759 mmHg 95%
    07:00 +22°C° 2.2 mm 4 mps 759 mmHg 95%
    08:00 +22°C° 3.4 mm 4 mps 760 mmHg 95%
    09:00 +22°C° 3.4 mm 4 mps 760 mmHg 96%
    10:00 +22°C° 3.4 mm 4 mps 760 mmHg 96%
    11:00 +22°C° 4.4 mm 5 mps 760 mmHg 96%
    12:00 +22°C° 4.4 mm 6 mps 760 mmHg 96%
    13:00 +22°C° 4.4 mm 7 mps 759 mmHg 96%
    14:00 +22°C° 3.4 mm 7 mps 759 mmHg 95%
    15:00 +22°C° 3.4 mm 7 mps 759 mmHg 95%
    16:00 +22°C° 3.4 mm 7 mps 759 mmHg 95%
    17:00 +22°C° 1.8 mm 7 mps 759 mmHg 95%
    18:00 +22°C° 1.8 mm 7 mps 760 mmHg 95%
    19:00 +21°C° 1.8 mm 7 mps 760 mmHg 95%
    20:00 +21°C° 1.7 mm 7 mps 760 mmHg 95%
    21:00 +21°C° 1.7 mm 7 mps 760 mmHg 95%
    22:00 +22°C° 1.7 mm 7 mps 760 mmHg 95%
    23:00 +22°C° 2.5 mm 7 mps 760 mmHg 95%
    Show more